TimeCST,TemperatureF,Dew PointF,Humidity,Sea Level PressureIn,VisibilityMPH,Wind Direction,Wind SpeedMPH,Gust SpeedMPH,PrecipitationIn,Events,Conditions,WindDirDegrees,DateUTC
12:55 AM,43.0,36.9,79,30.11,10.0,NW,4.6,-,N/A,,Clear,310,2013-02-06 06:55:00
1:55 AM,38.7,34.7,86,30.13,10.0,North,9.2,-,N/A,,Clear,360,2013-02-06 07:55:00
2:55 AM,36.7,33.4,88,30.14,10.0,North,5.8,-,N/A,,Clear,10,2013-02-06 08:55:00
3:55 AM,36.5,33.6,89,30.17,10.0,Calm,Calm,-,N/A,,Clear,0,2013-02-06 09:55:00
4:55 AM,33.3,31.5,93,30.19,10.0,North,5.8,-,N/A,,Clear,10,2013-02-06 10:55:00
5:55 AM,32.9,31.5,94,30.21,10.0,Calm,Calm,-,N/A,,Clear,0,2013-02-06 11:55:00
6:55 AM,29.7,29.3,99,30.22,10.0,NNE,4.6,-,N/A,,Clear,20,2013-02-06 12:55:00
7:55 AM,32.7,32.5,99,30.24,9.0,NNE,3.5,-,N/A,,Clear,30,2013-02-06 13:55:00
8:55 AM,38.1,34.0,85,30.25,10.0,NNE,5.8,-,N/A,,Clear,20,2013-02-06 14:55:00
9:55 AM,41.4,35.1,78,30.25,10.0,Variable,5.8,-,N/A,,Clear,0,2013-02-06 15:55:00
10:55 AM,43.7,33.3,67,30.26,10.0,North,4.6,-,N/A,,Clear,10,2013-02-06 16:55:00
11:55 AM,45.7,33.4,62,30.24,10.0,North,6.9,-,N/A,,Clear,360,2013-02-06 17:55:00
12:55 PM,47.5,32.9,57,30.22,10.0,Calm,Calm,-,N/A,,Clear,0,2013-02-06 18:55:00
1:55 PM,49.1,30.0,48,30.19,10.0,Variable,4.6,-,N/A,,Clear,0,2013-02-06 19:55:00
2:55 PM,50.4,30.7,47,30.19,10.0,NNE,4.6,-,N/A,,Clear,30,2013-02-06 20:55:00
3:55 PM,49.5,30.0,47,30.18,10.0,NE,3.5,-,N/A,,Clear,50,2013-02-06 21:55:00
4:55 PM,48.4,32.9,55,30.18,10.0,Calm,Calm,-,N/A,,Clear,0,2013-02-06 22:55:00
5:55 PM,46.4,29.7,52,30.16,10.0,ENE,4.6,-,N/A,,Clear,60,2013-02-06 23:55:00
6:55 PM,44.6,32.2,62,30.16,10.0,NNE,4.6,-,N/A,,Clear,30,2013-02-07 00:55:00
7:55 PM,42.4,33.4,70,30.18,10.0,NE,4.6,-,N/A,,Clear,40,2013-02-07 01:55:00
8:55 PM,43.0,31.5,64,30.17,10.0,ENE,4.6,-,N/A,,Clear,60,2013-02-07 02:55:00
9:55 PM,43.9,30.6,59,30.15,10.0,East,5.8,-,N/A,,Clear,90,2013-02-07 03:55:00
10:55 PM,43.7,30.2,59,30.13,10.0,East,6.9,-,N/A,,Clear,80,2013-02-07 04:55:00
11:55 PM,42.3,31.3,65,30.12,10.0,East,3.5,-,N/A,,Mostly Cloudy,100,2013-02-07 05:55:00